Lake Tawakoni Weather Center

Moon Phase Calendar



Lake Tawakoni Water Level
Online Cameras

 


      

Current Conditions in West Tawakoni
12/2/2020 10:02:03 AM

50°F
Feels Like 41
Clouds
Humidity
87%
Pressure
30.12"
Wind
15 mph (SE)
Dew Point
46°F
UV Index
0/10 (Low)
Visibility
6 mi

Hourly Forecast

Date & Time Wed, Dec 2
10:00 AM
Wed, Dec 2
11:00 AM
Wed, Dec 2
12:00 PM
Wed, Dec 2
1:00 PM
Wed, Dec 2
2:00 PM
Wed, Dec 2
3:00 PM
Wed, Dec 2
4:00 PM
Wed, Dec 2
5:00 PM
Wed, Dec 2
6:00 PM
Wed, Dec 2
7:00 PM
Wed, Dec 2
8:00 PM
Wed, Dec 2
9:00 PM
Wed, Dec 2
10:00 PM
Wed, Dec 2
11:00 PM
Thu, Dec 3
12:00 AM
Thu, Dec 3
1:00 AM
Thu, Dec 3
2:00 AM
Thu, Dec 3
3:00 AM
Thu, Dec 3
4:00 AM
Thu, Dec 3
5:00 AM
Thu, Dec 3
6:00 AM
Thu, Dec 3
7:00 AM
Thu, Dec 3
8:00 AM
Thu, Dec 3
9:00 AM
Thu, Dec 3
10:00 AM
Thu, Dec 3
11:00 AM
Thu, Dec 3
12:00 PM
Thu, Dec 3
1:00 PM
Thu, Dec 3
2:00 PM
Thu, Dec 3
3:00 PM
Thu, Dec 3
4:00 PM
Thu, Dec 3
5:00 PM
Thu, Dec 3
6:00 PM
Thu, Dec 3
7:00 PM
Thu, Dec 3
8:00 PM
Thu, Dec 3
9:00 PM
Thu, Dec 3
10:00 PM
Thu, Dec 3
11:00 PM
Fri, Dec 4
12:00 AM
Fri, Dec 4
1:00 AM
Fri, Dec 4
2:00 AM
Fri, Dec 4
3:00 AM
Fri, Dec 4
4:00 AM
Fri, Dec 4
5:00 AM
Fri, Dec 4
6:00 AM
Fri, Dec 4
7:00 AM
Fri, Dec 4
8:00 AM
Fri, Dec 4
9:00 AM
Condition
Clouds

Clouds

Clouds

Rain

Rain

Rain

Rain

Rain

Clouds

Clouds

Clouds

Clouds

Clouds

Clouds

Clouds

Clear

Clear

Clear

Clear

Clear

Clear

Clear

Clear

Clear

Clear

Clouds

Clouds

Clouds

Clouds

Clouds

Clouds

Clouds

Clouds

Clear

Clear

Clear

Clear

Clear

Clear

Clear

Clear

Clear

Clear

Clear

Clear

Clear

Clear

Clear
Temperature 50°F50°F50°F53°F51°F52°F51°F51°F51°F50°F48°F44°F43°F41°F40°F39°F39°F39°F39°F39°F38°F38°F40°F44°F48°F50°F51°F51°F51°F50°F49°F48°F46°F44°F43°F42°F41°F41°F40°F39°F39°F38°F38°F37°F37°F36°F38°F41°F
Feels Like 41°F42°F41°F44°F43°F44°F45°F46°F46°F46°F43°F35°F34°F33°F33°F32°F32°F32°F32°F32°F32°F32°F34°F37°F41°F43°F44°F43°F43°F42°F42°F41°F39°F37°F36°F35°F34°F33°F33°F32°F31°F31°F30°F30°F29°F29°F31°F34°F
Cloudiness 90%95%98%95%97%99%99%99%99%89%86%74%62%52%45%7%7%5%6%5%4%0%0%5%8%21%33%100%100%98%98%91%80%9%6%4%3%2%2%0%0%0%0%0%0%0%0%0%
Visibility 6 mi5 mi6 mi6 mi6 mi6 mi6 mi6 mi6 mi6 mi6 mi6 mi6 mi6 mi6 mi6 mi6 mi6 mi6 mi6 mi6 mi6 mi6 mi6 mi6 mi6 mi6 mi6 mi6 mi6 mi6 mi6 mi6 mi6 mi6 mi6 mi6 mi6 mi6 mi6 mi6 mi6 mi6 mi6 mi6 mi6 mi6 mi6 mi
Precipitation 80%80%80%95%91%100%96%96%87%28%30%20%16%14%4%0%0%0%0%0%0%0%0%0%0%0%0%2%0%0%0%0%0%0%0%0%0%0%0%0%0%0%0%0%0%0%0%0%
Humidity 87%89%91%88%92%92%92%92%93%94%88%82%84%87%89%90%91%91%91%90%91%91%90%82%77%72%70%69%68%71%74%78%85%90%92%92%93%94%94%93%93%94%93%93%93%93%90%80%
Dew Point 46°F47°F48°F49°F49°F49°F49°F49°F49°F49°F45°F40°F39°F38°F37°F37°F37°F37°F37°F36°F36°F36°F37°F39°F41°F41°F41°F41°F41°F41°F41°F41°F42°F41°F41°F40°F39°F39°F39°F38°F37°F37°F36°F36°F35°F35°F35°F36°F
Pressure 30.12"30.12"30.12"30.09"30.06"30.06"30.06"30.09"30.09"30.12"30.15"30.15"30.15"30.15"30.15"30.15"30.12"30.12"30.12"30.12"30.12"30.15"30.15"30.18"30.18"30.18"30.18"30.15"30.15"30.12"30.12"30.15"30.15"30.18"30.18"30.18"30.21"30.21"30.21"30.21"30.18"30.18"30.18"30.18"30.21"30.21"30.21"30.24"
Wind Speed 15.2 mph13.1 mph14.6 mph15.4 mph14.2 mph13.6 mph10.9 mph9.2 mph7.9 mph5.8 mph8.1 mph13.4 mph10.2 mph8.7 mph7.9 mph7.4 mph7 mph7 mph6.9 mph6.9 mph6.8 mph6.2 mph5.7 mph7.6 mph8.2 mph8.1 mph8.8 mph9.3 mph9.9 mph10.1 mph9.3 mph8 mph8 mph8.8 mph9.5 mph9.1 mph8.2 mph8.6 mph8.8 mph8.6 mph8.3 mph7.9 mph7.8 mph7.8 mph7.6 mph6.7 mph6.3 mph7.6 mph
Wind
Direction
133°
SE
139°
SE
136°
SE
140°
SE
135°
SE
133°
SE
136°
SE
138°
SE
141°
SE
154°
SSE
282°
WNW
304°
NW
296°
WNW
294°
WNW
295°
WNW
294°
WNW
292°
WNW
289°
WNW
286°
WNW
289°
WNW
292°
WNW
291°
WNW
294°
WNW
310°
NW
319°
NW
317°
NW
318°
NW
323°
NW
334°
NNW
345°
NNW
350°
N
348°
NNW
341°
NNW
339°
NNW
341°
NNW
343°
NNW
341°
NNW
334°
NNW
335°
NNW
332°
NNW
328°
NNW
324°
NW
324°
NW
325°
NW
323°
NW
320°
NW
315°
NW
318°
NW

Daily Forecast

Date High Low Precip. Humidity
Today
Dec 2

Rain
53 °F
41 °F
100%
91%
Thursday
Dec 3

Clouds
51 °F
38 °F
4%
70%
Friday
Dec 4

Clear
52 °F
37 °F
0%
57%
Saturday
Dec 5

Clear
58 °F
40 °F
0%
39%
Sunday
Dec 6

Clear
60 °F
40 °F
0%
42%
Monday
Dec 7

Clear
50 °F
38 °F
0%
52%
Tuesday
Dec 8

Clouds
52 °F
34 °F
0%
53%
Wednesday
Dec 9

Clear
60 °F
38 °F
0%
44%
Thursday
Dec 10

Rain
59 °F
39 °F
98%
64%
Friday
Dec 11

Rain
63 °F
52 °F
100%
91%
Saturday
Dec 12

Rain
51 °F
43 °F
100%
60%
Sunday
Dec 13

Clouds
53 °F
38 °F
0%
45%
Monday
Dec 14

Rain
56 °F
39 °F
77%
55%
Tuesday
Dec 15

Rain
55 °F
39 °F
100%
63%
Wednesday
Dec 16

Clear
42 °F
30 °F
0%
61%
Thursday
Dec 17

Clear
42 °F
29 °F
0%
55%


Temperature 8-14 Day Outlook



Precipitation 8-14 Day Outlook




Quick Links
Lake Tawakoni News
Lake Tawakoni Photos
Lake Tawakoni Videos




About Us
Contact Us
Site Map
Search Site
Advertise With Us
   
Tawakoni.USLakes.info
THE LAKE TAWAKONI WEBSITE

Copyright 2020, Lakes Online
Privacy    |    Legal